| time (UTC) | temp F | wind direction | speed knots | gust knots | rain 1hr in | rain 24hr in | rain mn in | humidity % | barometer mb |
| 20260504081547 | 53 | 203 | 1.7 | 4.3 | 0.00 | 0.00 | 0.00 | 62 | 1017.7 |
| 20260504050008 | 48 | 307 | 0.0 | 0.0 | 0.00 | 0.00 | 0.00 | 64 | 1018.0 |
| 20260504044505 | 48 | 307 | 0.0 | 0.0 | 0.00 | 0.00 | 0.00 | 64 | 1018.0 |
| 20260504043003 | 47 | 307 | 0.0 | 0.0 | 0.00 | 0.00 | 0.00 | 66 | 1018.1 |
| 20260504041557 | 48 | 307 | 0.0 | 0.0 | 0.00 | 0.00 | 0.00 | 63 | 1018.1 |
| 20260504040054 | 48 | 307 | 0.0 | 0.0 | 0.00 | 0.00 | 0.00 | 63 | 1018.1 |
| 20260504034552 | 46 | 307 | 0.0 | 0.0 | 0.00 | 0.00 | 0.00 | 66 | 1017.9 |
| 20260504033057 | 44 | 307 | 0.0 | 0.0 | 0.00 | 0.00 | 0.00 | 72 | 1017.9 |
| 20260504031559 | 44 | 307 | 0.0 | 0.0 | 0.00 | 0.00 | 0.00 | 76 | 1017.7 |
| 20260504030049 | 44 | 307 | 0.0 | 0.0 | 0.00 | 0.00 | 0.00 | 78 | 1017.6 |
| 20260504024556 | 44 | 307 | 0.0 | 0.0 | 0.00 | 0.00 | 0.00 | 75 | 1017.6 |
| 20260504023045 | 45 | 307 | 0.0 | 0.0 | 0.00 | 0.00 | 0.00 | 73 | 1017.6 |
| 20260504021550 | 45 | 307 | 0.0 | 0.0 | 0.00 | 0.00 | 0.00 | 73 | 1017.6 |
| 20260504020047 | 46 | 307 | 0.0 | 0.0 | 0.00 | 0.00 | 0.00 | 70 | 1017.5 |
| 20260504014538 | 47 | 307 | 0.0 | 0.0 | 0.00 | 0.00 | 0.00 | 70 | 1017.4 |
| 20260504013045 | 48 | 307 | 0.0 | 0.0 | 0.00 | 0.00 | 0.00 | 68 | 1017.3 |
| 20260504011534 | 48 | 307 | 0.0 | 0.0 | 0.00 | 0.00 | 0.00 | 66 | 1017.2 |
| 20260504010033 | 50 | 307 | 0.0 | 0.0 | 0.00 | 0.00 | 0.00 | 64 | 1017.2 |
| 20260504004541 | 51 | 307 | 0.0 | 0.0 | 0.00 | 0.00 | 0.00 | 62 | 1017.3 |
| 20260504003030 | 53 | 307 | 0.0 | 0.0 | 0.00 | 0.00 | 0.00 | 58 | 1017.0 |
| 20260504001528 | 54 | 307 | 0.0 | 0.0 | 0.00 | 0.00 | 0.00 | 53 | 1017.0 |
| 20260504000027 | 57 | 307 | 0.0 | 0.0 | 0.00 | 0.00 | 0.00 | 47 | 1016.8 |
| 20260503234525 | 59 | 307 | 0.0 | 0.0 | 0.00 | 0.00 | 0.00 | 38 | 1016.6 |
| 20260503233029 | 61 | 307 | 0.0 | 0.9 | 0.00 | 0.00 | 0.00 | 36 | 1016.6 |
| 20260503231519 | 62 | 307 | 0.0 | 6.1 | 0.00 | 0.00 | 0.00 | 37 | 1016.4 |
| 20260503230017 | 63 | 312 | 0.0 | 3.5 | 0.00 | 0.00 | 0.00 | 35 | 1016.3 |
| 20260503224515 | 63 | 303 | 4.3 | 10.4 | 0.00 | 0.00 | 0.00 | 32 | 1016.4 |
| 20260503223014 | 62 | 304 | 1.7 | 4.3 | 0.00 | 0.00 | 0.00 | 33 | 1016.5 |
| 20260503221511 | 62 | 344 | 1.7 | 9.6 | 0.00 | 0.00 | 0.00 | 33 | 1016.4 |
| 20260503220009 | 62 | 304 | 1.7 | 7.0 | 0.00 | 0.00 | 0.00 | 34 | 1016.5 |
| 20260503214507 | 63 | 4 | 2.6 | 5.2 | 0.00 | 0.00 | 0.00 | 32 | 1016.5 |
| 20260503213007 | 62 | 316 | 1.7 | 11.3 | 0.00 | 0.00 | 0.00 | 35 | 1016.5 |
| 20260503211606 | 62 | 252 | 3.5 | 11.3 | 0.00 | 0.00 | 0.00 | 34 | 1016.5 |
| 20260503210058 | 61 | 281 | 2.6 | 7.8 | 0.00 | 0.00 | 0.00 | 35 | 1016.6 |
| 20260503204556 | 61 | 9 | 3.5 | 8.7 | 0.00 | 0.00 | 0.00 | 35 | 1016.6 |
| 20260503203154 | 60 | 320 | 3.5 | 13.9 | 0.00 | 0.00 | 0.00 | 36 | 1016.7 |
| 20260503201551 | 60 | 276 | 2.6 | 8.7 | 0.00 | 0.00 | 0.00 | 36 | 1016.9 |
| 20260503200147 | 61 | 251 | 2.6 | 10.4 | 0.00 | 0.00 | 0.00 | 36 | 1017.1 |
| 20260503194549 | 60 | 287 | 1.7 | 10.4 | 0.00 | 0.00 | 0.00 | 38 | 1017.1 |
| 20260503193043 | 60 | 299 | 5.2 | 11.3 | 0.00 | 0.00 | 0.00 | 38 | 1017.2 |
| 20260503191540 | 59 | 215 | 3.5 | 13.0 | 0.00 | 0.00 | 0.00 | 38 | 1017.5 |
| 20260503190041 | 59 | 325 | 1.7 | 11.3 | 0.00 | 0.00 | 0.00 | 38 | 1017.6 |
| 20260503184534 | 59 | 353 | 2.6 | 9.6 | 0.00 | 0.00 | 0.00 | 39 | 1017.7 |
| 20260503183029 | 59 | 351 | 5.2 | 12.2 | 0.00 | 0.00 | 0.00 | 38 | 1018.1 |
| 20260503181526 | 58 | 306 | 0.9 | 12.2 | 0.00 | 0.00 | 0.00 | 40 | 1017.9 |
| 20260503180124 | 58 | 226 | 1.7 | 10.4 | 0.00 | 0.00 | 0.00 | 41 | 1018.1 |
| 20260503174526 | 57 | 37 | 6.1 | 13.0 | 0.00 | 0.00 | 0.00 | 38 | 1018.3 |
| 20260503173021 | 58 | 293 | 2.6 | 7.8 | 0.00 | 0.00 | 0.00 | 38 | 1018.3 |
| 20260503171516 | 57 | 285 | 5.2 | 13.0 | 0.00 | 0.00 | 0.00 | 37 | 1018.5 |
| 20260503160112 | 54 | 270 | 4.3 | 12.2 | 0.00 | 0.00 | 0.00 | 41 | 1018.9 |